Location: Unspecified
(40.7945°N, 0.0000°E)
Time: 06:26:01
(UTC+00:00)

TIGRISAT - Pass Details

Date: 23 August 2019
Orbit: 605 x 690 km, 97.7° (Epoch: 21 September)

Event Time Altitude Azimuth Distance (km) Brightness Sun altitude
Rises 21:19:08 0° 7° (N) 3,034 ? -25.7°
Reaches altitude 10° 21:21:26 10° 2° (N) 2,104 ? -26.0°
Maximum altitude 21:25:53 51° 287° (WNW) 831 ? -26.6°
Enters shadow 21:26:56 42° 245° (WSW) 942 ? -26.7°
